Home   Weather   Fort Bragg   Past weeks

Flag for USA Past Weather in Fort Bragg, California, USA — Yesterday and Last 2 Weeks

Now
47 °F

Passing clouds.


Feels Like: 47 °F
Forecast: 50 / 56 °F
Wind: No wind

Location: Ukiah Municipal

Current Time: Apr 25, 2017 at 3:34:49 am

Latest Report: Apr 25, 2017 at 2:56 am


Visibility: 10 mi

Pressure: 30.07 "Hg

Humidity: 86%

Dew Point: 43 °F

Location of Fort BraggLocation

Past Weather in Fort Bragg — Graph

°F

Fort Bragg Temperature Yesterday

Maximum temperature yesterday: 62 °F (at 2:56 pm)
Minimum temperature yesterday: 48 °F (at 7:14 am)
Average temperature yesterday: 53 °F

High & Low Weather Summary for the Past Weeks

 TemperatureHumidityPressure
High80 °F (Apr 21, 4:56 pm)100% (Apr 17, 11:56 pm)30.32 "Hg (Apr 17, 11:56 pm)
Low35 °F (Apr 14, 5:56 am)25% (Apr 21, 5:56 pm)29.81 "Hg (Apr 12, 6:56 pm)
Average53 °F78%30.05 "Hg
* Reported Apr 10 1:56 am — Apr 25 1:56 am, Fort Bragg, Weather by CustomWeather, © 2017

Note: Actual official high and low records may vary slightly from our data, if they occured in-between our weather recording intervals... More about our weather records

Advertising

Fort Bragg Weather History for the Previous 24 Hours

Scroll right to see more
 ConditionsComfort  
Time TempWeatherWind HumidityBarometerVisibility
1:56 am
Tue, Apr 25
49 °FPassing clouds.No wind84%30.09 "Hg10 mi
12:56 am51 °FPassing clouds.3 mph74%30.08 "Hg10 mi
11:56 pm
Mon, Apr 24
52 °FOvercast.7 mph72%30.08 "Hg10 mi
10:56 pm52 °FPassing clouds.9 mph72%30.09 "Hg10 mi
10:14 pm52 °FOvercast.6 mph72%30.09 "Hg10 mi
10:03 pm53 °FOvercast.10 mph72%30.09 "Hg10 mi
9:56 pm53 °FMostly cloudy.8 mph72%30.08 "Hg10 mi
8:56 pm53 °FOvercast.8 mph74%30.06 "Hg10 mi
7:56 pm53 °FScattered clouds.7 mph74%30.03 "Hg10 mi
6:56 pm55 °FPartly sunny.10 mph72%30.03 "Hg10 mi
5:56 pm59 °FScattered clouds.9 mph64%30.02 "Hg10 mi
4:56 pm59 °FScattered clouds.8 mph67%30.01 "Hg10 mi
3:56 pm60 °FPassing clouds.12 mph65%30.02 "Hg10 mi
2:56 pm62 °FScattered clouds.14 mph62%30.02 "Hg10 mi
1:56 pm61 °FBroken clouds.9 mph67%30.01 "Hg10 mi
12:56 pm59 °FLight rain. Mostly cloudy.8 mph78%30.01 "Hg10 mi
12:27 pm58 °FMostly cloudy.8 mph78%30.03 "Hg10 mi
11:56 am56 °FMostly cloudy.3 mph90%30.02 "Hg10 mi
11:25 am54 °FLight rain. Fog.5 mph97%30.04 "Hg3 mi
10:56 am53 °FLight rain. Fog.8 mph93%30.03 "Hg2 mi
9:56 am51 °FFog.7 mph92%30.01 "Hg3 mi
9:26 am50 °FLight rain. Fog.7 mph93%30.02 "Hg3 mi
9:06 am50 °FLight rain. Fog.5 mph96%30.03 "Hg3 mi
8:56 am49 °FFog.6 mph97%30.01 "Hg5 mi
7:56 am48 °FLight rain. Fog.No wind96%30.01 "Hg3 mi
7:14 am48 °FFog.3 mph89%30.01 "Hg6 mi
6:56 am49 °FMostly cloudy.5 mph84%29.99 "Hg10 mi
5:56 am49 °FMostly cloudy.No wind84%29.99 "Hg10 mi
4:56 am49 °FOvercast.5 mph84%29.99 "Hg10 mi
4:20 am50 °FOvercast.6 mph77%30.00 "Hg10 mi
3:56 am50 °FMostly cloudy.5 mph80%29.99 "Hg10 mi
Weather by CustomWeather, © 2017

See weather overviewHow to use our weather pages